Location: Mexico
(19.4000°N, 99.1500°W)
Time: 23:53:46
(UTC-06:00)

ISS - Pass Details

Date: 20 October 2017
Orbit: 400 x 408 km, 51.6° (Epoch: 24 October)

Event Time Altitude Azimuth Distance (km) Brightness Sun altitude
Rises 18:38:29 0° 310° (NW) 2,313 0.7 -7.5°
Reaches altitude 10° 18:40:40 10° 301° (WNW) 1,454 -0.2 -8.0°
Maximum altitude 18:43:40 35° 234° (SW) 677 -2.0 -8.7°
Drops below altitude 10° 18:46:41 10° 166° (SSE) 1,454 -1.1 -9.4°
Sets 18:48:51 0° 157° (SSE) 2,312 -0.1 -10.0°
